STARLINK-32647, 62200

Orbit data source: Space-Track

STARLINK-32647, 62200 is a payload satellite owned by SpaceX/Seattle (US) in LEO that was launched on Wed, 04 Dec 2024 UTC via an FALCON 9 launch vehicle from the Air Force Eastern Test Range (AFETR). Payload-class satellites include a variety of spacecraft equipped with specific instruments for various scientific and technological missions. These include communications satellites like Starlink; space stations such as the ISS; scientific satellites like the Hubble; Earth observation satellites from companies like Planet Labs, Umbra, and HawkEye 360; GPS; miniature CubeSats for education and research; and military/defense satellites.

Loading next visibility...
Identifier
62200, 2024-229J
Orbit
LEO
Last TLE update
13 hours ago
Origin
Manufacturer
SpaceX/Seattle
Mission
Operational Commercial Communications
Bus & Motor
STARLINK V2M, Unknown motor
Mass
730 kg wet, ~700 kg dry
Launch date (UTC)
2024-12-04 (7 months ago)
Launch vehicle
FALCON 9
Launch site
Air Force Eastern Test Range (AFETR)
Object type
Payload
Rocket body
Debris
Shape & HBR
Box + 2 Pan, 29 m
Radar Cross Section
33.884 m², Large (>1 m²)

Expand to show TLE details & history

TLE from 13 hours ago
0 STARLINK-32647
1 62200U 24229J   25189.75495144  .00008779  00000-0  32815-3 0  9996
2 62200  42.9990 208.4198 0001424 273.9885  86.0804 15.27581217 33258
Epoch: 2025-07-08T18:07Z
TLE epoch observation values (Epoch: 2025-07-08T18:07:07.804Z)
Latitude
-0°
Longitude
9.69189°
Altitude
482.754 km
Speed
7.626 km/s
True Right ascension
13h 53m 40s
True Declination
0° 00' 00"
Sunlit
Object was in daylight at epoch
Visualization orbit readout
Latitude
6.69639°
Longitude
179.36868°
Altitude
482.462 km
Speed
7.626 km/s
Apparent Right ascension
03h 42m 33s
Apparent Declination
-22° 15' 41"
Sunlit
Object is in daylight
Visualization observer readout
Local Sidereal Time
19:34:21
Azimuth
88.206° E
Elevation
-38.298°
Doppler factor
1
Orbital elements
Apogee altitude
485.968 km
Perigee altitude
484.013 km
Semi-major axis
6,863.128 km
Eccentricity
0.00014
Inclination
42.999°
RAAN
208.4198°
Arg. of periapsis
273.9885°
True anomaly
Unknown
Mean anomaly
86.0804°
Eccentric anomaly
Unknown
Mean motion
3.81733 °/min
Orbital period
94.31 mins
BSTAR
0.00032815
Loading maneuver chart data...
Loading SW <> Apogee altitude chart data...
Loading historical data...
Loading historical data...
Loading historical data...
Loading historical data...
Loading historical data...
Loading historical data...
Loading historical data...

STARLINK-32647 Visibility forecast

Observer location: undefined°, undefined°

Span
Click to sort rows by Start time (UTC) header in descending order
Start Az.
Max El. time (UTC)
Max El. Az.
Max El.
End time (UTC)
End Az.
6 mins2025-07-09 08:38:51.499Z291.8° WNW2025-07-09 08:41:51.499Z40.273° NE42.018°2025-07-09 08:44:51.499Z95.131° ESE
5 mins2025-07-09 10:18:51.499Z259.149° W2025-07-09 10:20:51.499Z192.908° SSW30.78°2025-07-09 10:23:51.499Z141.036° SSE
5 mins2025-07-10 04:53:51.499Z231.714° WSW2025-07-10 04:55:51.499Z128.065° SE41.929°2025-07-10 04:58:51.499Z75.613° E
5 mins2025-07-10 06:32:51.499Z287.857° WNW2025-07-10 06:34:51.499Z9.834° NNE38.621°2025-07-10 06:37:51.499Z71.327° E
|